Terminal Aerodrome Forecast
Issued by NWS North Platte, NE

Home | Current Version | Previous Version | Text Only | Print | Product List | Glossary Off
Versions: 1 2 3 4 5 6 7 8 9 10 11 12 13 14 15 16 17 18 19 20 21 22

000
FTUS43 KLBF 051700
TAFVTN
TAF
KVTN 051739Z 0518/0618 12013KT P6SM OVC008
      TEMPO 0518/0520 3SM -SHRA BR OVC005
     FM052200 15015KT P6SM OVC015
     FM060600 12008KT 5SM -SHRA BR OVC008
      TEMPO 0606/0608 2SM -SHRA BR OVC005
     FM061000 15010KT 3SM BR OVC008
     FM061500 17012KT P6SM OVC015=

USA.gov is the U.S. government's official web portal to all federal, state and local government web resources and services.